EW1335 Weather Reports


time (UTC)temp
C
wind
direction
speed
KPH
gust
KPH
rain 1hr
cm
rain 24hr
cm
rain mn
cm
humidity
%
barometer
mb
20260506221954 7 284 1.6 6.4 0.00 1.83 0.89 89 1008.5
20260506221454 7 326 1.6 6.4 0.00 1.83 0.89 88 1008.4
20260506220954 7 325 1.6 6.4 0.00 1.83 0.89 90 1008.3
20260506220454 7 268 1.6 6.4 0.00 1.83 0.89 89 1008.3
20260506215454 7 330 0.0 6.4 0.00 1.83 0.89 89 1008.2
20260506214454 7 320 0.0 4.8 0.00 1.83 0.89 90 1008.2
20260506213454 7 323 4.8 6.4 0.00 1.83 0.89 89 1008.2
20260506212954 7 323 1.6 8.0 0.00 1.83 0.89 89 1008.2
20260506212454 7 281 1.6 8.0 0.00 1.83 0.89 89 1008.2
20260506211954 7 354 0.0 4.8 0.00 1.83 0.89 90 1008.3
20260506211454 7 291 3.2 4.8 0.00 1.83 0.89 90 1008.2
20260506210954 7 309 4.8 4.8 0.00 1.83 0.89 90 1008.2
20260506210454 7 321 3.2 8.0 0.00 1.83 0.89 91 1008.2
20260506205953 7 306 1.6 8.0 0.00 1.83 0.89 90 1008.1
20260506205453 7 2 6.4 6.4 0.00 1.83 0.89 91 1008.0
20260506204953 7 271 0.0 6.4 0.00 1.83 0.89 91 1007.9
20260506204453 7 61 1.6 4.8 0.00 1.83 0.89 91 1007.8
20260506203953 7 11 0.0 4.8 0.00 1.83 0.89 92 1007.8
20260506203453 7 297 0.0 4.8 0.00 1.83 0.89 91 1007.7
20260506202953 7 307 0.0 6.4 0.00 1.83 0.89 92 1007.8
20260506202453 7 311 3.2 6.4 0.00 1.83 0.89 91 1007.9
20260506200953 7 240 1.6 9.7 0.00 1.83 0.89 92 1007.6
20260506200453 7 330 1.6 6.4 0.00 1.83 0.89 91 1007.7
20260506195453 7 243 0.0 4.8 0.00 1.83 0.89 93 1007.5
20260506194953 6 93 0.0 6.4 0.00 1.83 0.89 93 1007.5
20260506194454 6 276 0.0 9.7 0.00 1.83 0.89 93 1007.7
20260506193953 6 340 3.2 9.7 0.00 1.83 0.89 93 1007.9
20260506192952 6 300 1.6 6.4 0.00 1.83 0.89 94 1007.9
20260506192452 6 354 0.0 9.7 0.00 1.83 0.89 94 1007.9
20260506191952 7 281 1.6 9.7 0.00 1.83 0.89 93 1007.9
20260506191452 7 264 4.8 8.0 0.00 1.83 0.89 94 1007.7
20260506190952 7 330 1.6 6.4 0.00 1.83 0.89 94 1007.8
20260506190452 7 283 1.6 8.0 0.00 1.83 0.89 94 1007.6
20260506185952 6 306 1.6 8.0 0.00 1.83 0.89 94 1007.6
20260506185452 6 282 1.6 8.0 0.00 1.83 0.89 94 1007.6
20260506184451 6 297 0.0 6.4 0.00 1.83 0.89 94 1007.7
20260506183952 6 68 3.2 6.4 0.00 1.83 0.89 95 1007.7
20260506183452 6 326 0.0 8.0 0.00 1.83 0.89 95 1007.7
20260506182952 6 304 4.8 8.0 0.00 1.83 0.89 94 1007.7
20260506182452 6 316 0.0 8.0 0.00 1.83 0.89 94 1007.5
20260506181953 6 238 0.0 4.8 0.00 1.83 0.89 94 1007.5
20260506181451 6 17 0.0 6.4 0.00 1.83 0.89 94 1007.7
20260506180951 6 349 1.6 8.0 0.00 1.83 0.89 94 1007.5
20260506180451 6 314 3.2 8.0 0.00 1.83 0.89 94 1007.5
20260506175952 6 323 3.2 4.8 0.00 1.83 0.89 94 1007.6
20260506174951 6 307 0.0 6.4 0.03 1.83 0.89 95 1007.3
20260506173951 6 273 3.2 8.0 0.03 1.83 0.89 95 1007.5
20260506173451 6 300 4.8 11.3 0.03 1.83 0.89 94 1007.4
20260506172953 6 58 0.0 11.3 0.05 1.83 0.89 94 1007.6
20260506172451 6 50 0.0 8.0 0.05 1.83 0.89 94 1007.6
20260506171951 6 281 0.0 8.0 0.05 1.83 0.89 95 1007.5
20260506171451 6 360 6.4 9.7 0.05 2.03 0.89 95 1007.4
20260506170451 6 300 1.6 8.0 0.08 2.06 0.89 95 1007.4
20260506165952 6 322 0.0 9.7 0.08 2.06 0.89 95 1007.5
20260506165451 6 324 0.0 11.3 0.05 2.03 0.86 95 1007.6
20260506164951 6 307 4.8 11.3 0.05 2.03 0.86 95 1007.7
20260506163950 6 58 0.0 8.0 0.05 2.03 0.86 95 1008.0
20260506163450 6 281 0.0 8.0 0.05 2.03 0.86 95 1008.0
20260506162950 6 101 1.6 3.2 0.03 2.01 0.84 95 1008.0
20260506162451 6 290 0.0 8.0 0.03 2.01 0.84 95 1008.1
20260506161450 6 36 3.2 4.8 0.05 2.01 0.84 95 1008.2
20260506160952 6 350 3.2 8.0 0.05 2.01 0.84 94 1008.1
20260506155950 6 281 0.0 6.4 0.03 1.98 0.81 95 1008.3
20260506155450 6 282 0.0 6.4 0.03 1.98 0.81 95 1008.2
20260506154950 6 334 3.2 6.4 0.03 1.98 0.81 95 1008.1
20260506154450 6 288 0.0 6.4 0.03 1.98 0.81 95 1008.1
20260506153950 6 9 0.0 9.7 0.03 1.98 0.81 95 1008.0
20260506152950 6 296 0.0 8.0 0.03 1.98 0.81 96 1008.2
20260506152450 6 56 0.0 8.0 0.03 1.98 0.81 95 1008.1
20260506151950 6 46 0.0 8.0 0.00 1.96 0.79 96 1008.1
20260506151450 6 96 3.2 8.0 0.00 1.96 0.79 95 1007.9
20260506150950 6 38 0.0 6.4 0.00 1.96 0.79 95 1008.0
20260506145950 6 60 4.8 6.4 0.00 1.96 0.79 96 1007.9
20260506145450 6 314 0.0 3.2 0.00 1.96 0.79 95 1008.1
20260506144950 5 220 0.0 3.2 0.00 1.96 0.79 96 1008.0
20260506144449 5 271 1.6 3.2 0.00 1.96 0.79 96 1008.1
20260506143950 5 310 0.0 4.8 0.00 1.96 0.79 96 1008.0
20260506143449 5 299 0.0 4.8 0.00 1.96 0.79 96 1008.0
20260506142949 5 18 1.6 4.8 0.00 1.96 0.79 96 1008.2
20260506142449 5 324 1.6 3.2 0.00 1.96 0.79 95 1008.1
20260506141949 5 319 0.0 1.6 0.00 1.96 0.79 96 1008.2
20260506141449 5 91 0.0 1.6 0.00 1.96 0.79 96 1008.2
20260506140949 5 143 0.0 3.2 0.00 1.96 0.79 96 1008.1
20260506140449 5 67 0.0 3.2 0.00 1.96 0.79 96 1008.1
20260506135950 5 290 0.0 3.2 0.03 1.96 0.79 96 1008.1
20260506135449 5 51 3.2 3.2 0.03 1.96 0.79 96 1008.2
20260506134949 5 307 1.6 1.6 0.05 1.96 0.79 96 1008.1
20260506133949 5 274 1.6 3.2 0.05 1.96 0.79 96 1008.1
20260506132949 5 18 0.0 3.2 0.08 1.96 0.79 96 1008.0
20260506132449 5 71 0.0 6.4 0.08 1.96 0.79 96 1008.1
20260506131949 5 359 0.0 6.4 0.08 1.98 0.79 96 1008.1
20260506131449 5 65 3.2 3.2 0.10 1.98 0.79 96 1008.0
20260506130949 5 75 0.0 1.6 0.10 1.98 0.79 96 1008.1
20260506130449 5 265 0.0 6.4 0.10 1.98 0.79 96 1008.2
20260506125948 5 313 0.0 6.4 0.10 1.96 0.76 96 1008.2
20260506125448 5 293 0.0 3.2 0.10 1.96 0.76 96 1008.2
20260506124948 5 308 1.6 1.6 0.10 1.93 0.74 96 1007.9
20260506123948 5 343 0.0 3.2 0.13 1.93 0.74 96 1007.9
20260506122448 5 340 0.0 3.2 0.10 1.96 0.71 96 1008.3
20260506121948 5 283 0.0 3.2 0.13 1.96 0.71 96 1008.3
20260506121448 5 16 1.6 3.2 0.10 1.93 0.69 96 1008.1
20260506120948 5 1 0.0 0.0 0.10 1.93 0.69 96 1008.1
20260506120449 5 28 0.0 0.0 0.13 1.93 0.69 96 1008.2
20260506114448 5 75 0.0 0.0 0.15 1.88 0.64 96 1009.0
20260506113948 5 75 0.0 0.0 0.15 1.85 0.61 97 1009.0
20260506113448 5 76 0.0 3.2 0.18 1.85 0.61 96 1008.9
20260506112448 5 27 1.6 3.2 0.23 1.85 0.61 96 1008.5
20260506111448 5 92 0.0 1.6 0.23 1.83 0.58 97 1008.8
20260506110948 5 90 0.0 1.6 0.28 1.83 0.58 97 1008.8
20260506110447 5 98 0.0 1.6 0.25 1.80 0.56 97 1008.9
20260506105449 5 344 0.0 1.6 0.25 1.75 0.51 98 1009.0
20260506104947 5 321 0.0 0.0 0.23 1.73 0.48 98 1009.1
20260506104447 5 321 0.0 0.0 0.25 1.73 0.48 98 1009.1
20260506103947 5 321 0.0 0.0 0.23 1.70 0.46 97 1009.2
20260506102947 5 322 0.0 0.0 0.20 1.68 0.41 97 1009.3
20260506102447 6 323 0.0 0.0 0.18 1.65 0.38 97 1008.8
20260506101947 6 323 0.0 0.0 0.15 1.63 0.36 97 1008.5
20260506101448 6 323 0.0 0.0 0.15 1.63 0.36 97 1008.3
20260506100947 6 323 0.0 0.0 0.13 1.57 0.30 97 1008.2
20260506100447 6 323 0.0 0.0 0.13 1.57 0.30 98 1008.2
20260506095947 6 323 0.0 0.0 0.10 1.55 0.28 98 1008.3
20260506095447 6 323 0.0 0.0 0.08 1.55 0.25 97 1008.3
20260506094947 6 322 0.0 0.0 0.08 1.57 0.25 98 1008.4
20260506094449 6 322 0.0 0.0 0.05 1.57 0.23 98 1008.4
20260506093947 6 322 0.0 0.0 0.05 1.57 0.23 98 1008.3
20260506093447 6 322 0.0 0.0 0.05 1.57 0.23 98 1008.3
20260506092947 6 322 0.0 0.0 0.03 1.55 0.20 98 1008.3
20260506092447 6 322 0.0 1.6 0.03 1.55 0.20 97 1008.3
20260506091948 6 322 0.0 1.6 0.03 1.55 0.20 97 1008.5
20260506091447 6 95 0.0 0.0 0.03 1.55 0.20 98 1008.8
20260506090447 6 105 0.0 0.0 0.00 1.52 0.18 97 1008.6
20260506085946 6 105 0.0 0.0 0.00 1.52 0.18 98 1008.7
20260506085446 6 105 0.0 1.6 0.00 1.52 0.18 98 1009.0
20260506084948 6 105 0.0 1.6 0.00 1.52 0.18 97 1009.0
20260506084446 6 105 0.0 1.6 0.00 1.52 0.18 98 1009.1
20260506083446 6 260 0.0 1.6 0.00 1.52 0.18 98 1009.3
20260506082946 6 260 0.0 0.0 0.00 1.52 0.18 98 1009.5
20260506082446 6 260 0.0 0.0 0.00 1.52 0.18 98 1009.5
20260506081946 6 260 0.0 0.0 0.00 1.52 0.18 98 1009.2
20260506081446 6 260 0.0 0.0 0.00 1.52 0.18 98 1009.3
20260506080946 6 260 0.0 0.0 0.00 1.52 0.18 98 1009.3
20260506080446 6 261 0.0 0.0 0.00 1.52 0.18 97 1009.4
20260506072946 6 321 0.0 0.0 0.03 1.55 0.18 97 1009.3
20260506072446 6 321 0.0 1.6 0.03 1.55 0.18 97 1009.3
20260506071946 6 321 0.0 1.6 0.03 1.55 0.18 97 1009.2
20260506071446 6 56 0.0 1.6 0.03 1.55 0.18 97 1009.0
20260506070947 6 341 0.0 0.0 0.03 1.55 0.18 97 1009.2
20260506070446 6 340 0.0 0.0 0.03 1.55 0.18 97 1009.6
20260506062445 6 86 0.0 1.6 0.03 1.52 0.15 96 1008.9
20260506061945 6 169 0.0 3.2 0.03 1.52 0.15 96 1009.3
20260506061445 6 141 0.0 3.2 0.03 1.52 0.15 96 1009.1
20260506060947 6 88 0.0 3.2 0.03 1.52 0.15 96 1009.3
20260506060445 6 153 0.0 0.0 0.03 1.52 0.15 96 1009.6
20260506050945 7 162 0.0 0.0 0.10 1.50 0.13 96 1009.8
20260506050445 7 162 0.0 0.0 0.13 1.50 0.13 96 1009.8
20260506044944 7 162 0.0 1.6 0.13 1.50 0.13 96 1009.9
20260506044445 7 169 0.0 1.6 0.15 1.50 0.13 96 1009.8
20260506043945 7 165 0.0 0.0 0.13 1.47 0.10 96 1010.0
20260506043444 7 156 0.0 3.2 0.15 1.47 0.10 96 1009.9
20260506042444 7 95 0.0 1.6 0.13 1.42 0.05 96 1009.8
20260506041944 7 94 0.0 1.6 0.15 1.42 0.05 95 1009.8
20260506040444 7 137 0.0 3.2 0.13 1.37 0.00 95 1010.2
20260506035444 7 171 0.0 4.8 0.15 1.37 1.37 96 1010.3
20260506034944 7 155 0.0 4.8 0.15 1.37 1.37 96 1010.3
20260506034444 7 54 0.0 4.8 0.15 1.35 1.35 95 1010.1
20260506033944 7 160 1.6 4.8 0.15 1.35 1.35 96 1010.2
20260506032944 7 245 0.0 3.2 0.18 1.32 1.32 95 1009.7
20260506032444 7 307 3.2 3.2 0.18 1.30 1.30 95 1009.6
20260506031944 7 208 1.6 3.2 0.18 1.27 1.27 95 1009.5
20260506030944 7 229 0.0 1.6 0.20 1.24 1.24 95 1009.7
20260506030443 7 229 0.0 1.6 0.23 1.24 1.24 95 1009.5
20260506025944 8 117 0.0 1.6 0.28 1.24 1.24 95 1009.3
20260506025443 8 245 0.0 1.6 0.28 1.22 1.22 95 1009.6
20260506024943 8 245 0.0 1.6 0.30 1.22 1.22 94 1009.5
20260506024443 8 245 0.0 1.6 0.30 1.19 1.19 94 1009.7
20260506023943 8 244 0.0 4.8 0.33 1.19 1.19 94 1009.6
20260506023443 8 245 0.0 4.8 0.36 1.17 1.17 94 1009.5
20260506022943 8 86 1.6 6.4 0.36 1.14 1.14 94 1009.6
20260506022443 8 103 0.0 6.4 0.36 1.12 1.12 94 1009.4
20260506021943 8 238 0.0 11.3 0.33 1.09 1.09 93 1009.6
20260506021443 8 280 0.0 11.3 0.36 1.07 1.07 93 1009.6
20260506020943 8 293 0.0 3.2 0.33 1.04 1.04 95 1009.5
20260506020443 8 327 0.0 0.0 0.36 1.02 1.02 95 1009.4
20260506015943 8 327 0.0 1.6 0.30 0.97 0.97 94 1009.3
20260506015443 8 326 0.0 3.2 0.30 0.94 0.94 94 1009.1
20260506014943 8 327 0.0 3.2 0.30 0.91 0.91 93 1008.9
20260506014443 8 293 0.0 6.4 0.30 0.89 0.89 93 1009.1
20260506013943 8 227 0.0 8.0 0.30 0.86 0.86 93 1009.2
20260506013443 9 63 1.6 8.0 0.28 0.81 0.81 94 1009.1
20260506012943 9 115 1.6 3.2 0.28 0.79 0.79 95 1009.1
20260506012443 9 237 0.0 0.0 0.25 0.76 0.76 94 1009.2
20260506011442 9 97 0.0 1.6 0.25 0.71 0.71 94 1009.1
20260506010443 9 255 0.0 3.2 0.20 0.66 0.66 93 1009.2
20260506005942 9 248 0.0 3.2 0.23 0.66 0.66 92 1009.1
20260506004942 10 76 0.0 6.4 0.18 0.61 0.61 91 1009.0
20260506003942 10 319 1.6 9.7 0.13 0.56 0.56 90 1009.1
20260506003442 10 250 3.2 6.4 0.10 0.53 0.53 89 1008.8
20260506002942 10 240 1.6 4.8 0.08 0.51 0.51 88 1008.6
20260506002442 11 301 0.0 6.4 0.08 0.51 0.51 86 1008.5
20260506001942 11 301 1.6 6.4 0.05 0.48 0.48 84 1008.3
20260506000942 12 288 4.8 11.3 0.03 0.46 0.46 80 1008.3
20260506000442 12 292 1.6 11.3 0.03 0.46 0.46 78 1007.9
20260505235942 13 304 6.4 12.9 0.00 0.43 0.43 74 1007.8
20260505234942 13 302 0.0 14.5 0.00 0.43 0.43 67 1007.7
20260505234442 14 291 4.8 14.5 0.00 0.43 0.43 66 1007.5
20260505233942 14 286 1.6 17.7 0.00 0.43 0.43 66 1007.1
20260505231441 15 222 12.9 17.7 0.00 0.43 0.43 66 1006.3
20260505230943 15 311 4.8 16.1 0.00 0.43 0.43 67 1006.3
20260505230441 15 252 4.8 16.1 0.00 0.43 0.43 66 1006.3
20260505225941 15 6 6.4 20.9 0.00 0.43 0.43 66 1006.3
20260505225441 15 307 16.1 20.9 0.00 0.43 0.43 66 1005.6
20260505224942 15 260 1.6 19.3 0.00 0.43 0.43 67 1005.5
20260505224441 15 318 8.0 17.7 0.00 0.43 0.43 69 1005.2
20260505223941 16 293 8.0 17.7 0.00 0.43 0.43 70 1005.3
20260505223441 16 7 8.0 17.7 0.00 0.43 0.43 73 1005.3
20260505222941 16 321 4.8 16.1 0.00 0.43 0.43 73 1005.3